Location: Malcolm X Square
(37.7810°N, 122.4297°W)
Time: 22:00:44
(UTC+00:00)

Cosmos 2112 Rocket - Pass Details

Date: 13 April 2024
Orbit: 754 x 785 km, 74.0° (Epoch: 20 May)

Event Time Altitude Azimuth Distance (km) Brightness Sun altitude
Exits shadow 12:16:56 23° 226° (SW) 1,600 5.1 -15.7°
Maximum altitude 12:20:00 50° 292° (WNW) 991 4.3 -15.1°
Drops below altitude 10° 12:25:11 10° 7° (N) 2,349 6.9 -14.2°
Sets 12:27:40 0° 13° (NNE) 3,283 7.8 -13.8°
